www.pogodaiklimat.ru

Погода и климат >> Архив погоды >> Россия >> Калужская область >> Спас-Деменск


ПОГОДА в Спас-Деменске

  • Прогноз погоды в Спас-Деменске
  • Монитор погоды в Спас-Деменске

АРХИВ ПОГОДЫ в Спас-Деменске

Время (UTC), дата Ветер
(напр.,м/с)
 
Видим.   Явления Облачность Т
(С)
Тd
(С)
f
(%)
Тe
(С)
Тes
(С)
Комфортность P
(гПа)
Po
(гПа)
Тmin
(С)
Tmax
(С)
R
(мм)
R24
(мм)
S
(см)
21 17.06 Ю 1 н/о н/о +18.0 +16.2 89 +19 +19 1013.7 986.1
00 18.06 СЗ 1 н/о н/о +15.0 +14.0 94 +15 +15 1013.9 985.9
03 18.06 СЗ 1 1800 м дымка 10/10 100 м
[St]
+15.8 +15.8 100 +16 +16 1014.1 986.2 +13.8
06 18.06 СВ 2 15 км 6/0
[Ac trans]
+21.9 +14.5 63 +25 +31 комфорт 1014.0 986.7 +13.8
09 18.06 СЗ 2 15 км 8/8 600 м
[Sc]
+23.5 +14.9 58 +26 +29 жарко 1014.8 987.6
12 18.06 СЗ 2 15 км 8/4 300 м
[Cb cap Ac trans]
+23.0 +14.9 60 +27 +32 душно 1015.2 987.9
15 18.06 СЗ 3 15 км 6/6 1000 м
[Cu med, cong]
+24.4 +13.0 49 +26 +28 жарко 1014.4 987.2 +25.5
18 18.06 СЗ 1 15 км 3/0 2000 м
[Ac trans]
+20.9 +13.5 63 +25 +25 комфорт 1015.3 987.8 +25.5
21 18.06 СЗ 1 10 км ясно +16.5 +12.3 76 +17 +17 1016.8 988.9
00 19.06 СЗ 2 15 км ясно +14.6 +10.0 74 +14 +14 1017.9 989.7
03 19.06 СЗ 3 15 км ясно +13.5 +9.6 77 +12 +13 1018.5 990.2 +13.2
06 19.06 С 1 15 км ясно +21.2 +12.3 57 +23 +33 комфорт 1018.2 990.6 +13.2
09 19.06 С 2 15 км 6/6 1000 м
[Cu med, cong]
+23.6 +9.8 42 +25 +31 комфорт 1018.0 990.6
12 19.06 С 1 15 км 6/6 1000 м
[Cu med, cong]
+25.2 +9.2 36 +26 +32 жарко 1017.4 990.2
15 19.06 С 1 15 км 4/4 1000 м
[Cu med, cong]
+25.7 +8.5 34 +26 +29 жарко 1016.5 989.4 +26.7
18 19.06 З 1 15 км 4/0
[Ci sp]
+19.4 +12.6 65 +22 +22 комфорт 1016.6 988.9 +26.7
21 19.06 штиль 0 10 км 3/3 600 м
[Sc]
+14.0 +12.0 88 +14 +14 1018.1 989.9
00 20.06 штиль 0 10 км 4/4 600 м
[Sc]
+12.0 +10.8 92 +11 +11 1018.7 990.2
03 20.06 штиль 0 15 км 6/6 600 м
[Sc]
+14.0 +12.2 89 +14 +14 1018.8 990.6 +11.8
06 20.06 Ю 1 15 км 3/0 2000 м
[Ac trans]
+23.9 +12.7 49 +26 +34 жарко 1017.6 990.3 +11.8
09 20.06 ЮВ 2 15 км 6/4 1000 м
[Cu med, cong Ci sp]
+26.6 +9.9 35 +27 +36 жарко 1017.4 990.3
12 20.06 ЮЗ 2 15 км 4/3 1000 м
[Cu hum Ci sp]
+27.9 +8.1 29 +28 +37 жарко 1016.3 989.4
15 20.06 Ю 1 15 км 4/3 1000 м
[Cu hum Ci sp]
+27.9 +9.2 31 +28 +31 жарко 1015.4 988.5 +28.5
18 20.06 В 1 15 км 3/0 2000 м
[Ac trans]
+22.2 +14.0 60 +25 +25 комфорт 1015.6 988.2 +28.5
21 20.06 штиль 0 15 км 8/0 2000 м
[Ac trans]
+16.8 +14.1 84 +17 +17 1016.9 989.0
00 21.06 В 1 н/о н/о +15.7 +12.9 83 +16 +16 1017.6 989.6
03 21.06 ЮВ 1 15 км 6/0 2000 м
[Ac trans]
+17.3 +12.6 74 +18 +19 1017.6 989.7 +15.1
06 21.06 Ю 2 15 км 5/0
[Ac und]
+24.1 +13.9 53 +26 +32 жарко 1016.9 989.7 +15.1
09 21.06 Ю 3 15 км 5/0
[Ac und]
+28.8 +11.3 34 +29 +38 жарко 1016.4 989.6
12 21.06 ЮЗ 3 15 км 6/4 1000 м
[Cu med, cong Ac As]
+30.0 +10.0 29 +30 +35 жарко 1015.8 989.1
15 21.06 Ю 2 15 км 3/0
[Ac und]
+29.4 +12.3 35 +30 +34 жарко 1014.2 987.5 +30.4
18 21.06 штиль 0 15 км 8/4 300 м
[Cb cap Ci sp]
+22.8 +16.3 67 +27 +27 душно 1014.8 987.6 +30.4
21 21.06 СВ 1 10 км 6/3 600 м
[Sc Ci sp]
+20.7 +15.7 73 +25 +25 комфорт 1015.8 988.3
00 22.06 З 2 10 км 8/8 600 м
[Sc]
+19.1 +15.7 81 +21 +21 комфорт 1016.8 989.1
03 22.06 Ю 1 15 км 4/4 600 м
[Sc]
+18.0 +15.8 87 +19 +20 1016.1 988.3 +16.4
06 22.06 Ю 2 15 км 8/6 300 м
[Cb cap Ac trans]
+24.2 +16.8 63 +28 +30 душно 1016.1 988.9 +16.4
09 22.06 ЮЗ 3 15 км 6/0
[Ac trans]
+29.3 +14.3 40 +31 +40 жарко 1015.9 989.1
12 22.06 СЗ 2 15 км 8/6 300 м
[Cb cap Ac trans]
+28.1 +17.5 53 +32 +36 душно 1015.8 989.0
15 22.06 З 2 15 км 6/6 300 м
[Cb cap]
+27.8 +16.6 51 +31 +33 душно 1015.1 988.3 +29.9
18 22.06 СЗ 2 15 км 8/8 600 м
[Sc]
+23.2 +16.5 66 +28 +28 душно 1016.9 989.6 +29.9
21 22.06 С 2 15 км 6/6 600 м
[Sc]
+18.7 +15.1 80 +20 +20 1018.2 990.4
00 23.06 С 3 15 км 8/8 600 м
[Sc]
+16.7 +15.5 93 +16 +16 1019.3 991.3
03 23.06 СВ 2 15 км 10/10 600 м
[Sc]
+18.0 +16.4 90 +19 +19 992.4 +16.7
06 23.06 СВ 2 15 км 6/6 600 м
[Sc]
+21.6 +16.3 72 +25 +29 комфорт 1020.0 992.5 +16.7
09 23.06 В 1 15 км 8/6 300 м
[Cb cap Ac trans]
+23.6 +16.2 63 +27 +32 жарко 1019.5 992.2
12 23.06 СВ 4 15 км 6/4 1000 м
[Cu med, cong Ci sp]
+25.1 +16.8 60 +29 +34 душно 1018.6 991.4
15 23.06 СВ 3 15 км 8/6 300 м
[Cb cap Ci sp]
+21.3 +14.1 63 +24 +25 комфорт 1019.4 991.8 +25.5
18 23.06 СВ 2 13 км гроза, ливневой дождь 10/10 300 м
[Cb calv]
+16.5 +15.1 91 +17 +17 1019.7 991.7 +25.5 8
21 23.06 С 2 10 км {гроза, ливн. осадки} 8/8 300 м
[Cb cap]
+15.4 +14.2 93 +15 +15 1021.3 993.1
00 24.06 С 2 10 км {гроза} 4/4 600 м
[Sc]
+13.5 +12.5 94 +13 +13 1022.2 993.8
03 24.06 С 1 15 км 4/0
[Ci sp]
+13.8 +12.1 89 +14 +15 1023.2 994.8 +12.7 11
06 24.06 СВ 3 15 км 1/0
[Ci sp]
+18.7 +19.9 100 +20 +27 1023.3 995.4 +12.7 3
09 24.06 С 3 15 км 6/6 1000 м
[Cu med, cong]
+21.9 +10.9 50 +24 +29 комфорт 1023.4 995.7
12 24.06 С 2 15 км 4/4 1000 м
[Cu hum]
+23.6 +8.7 39 +24 +32 комфорт 1023.2 995.7
15 24.06 С 2 15 км 4/3 1000 м
[Cu hum Ci sp]
+23.9 +7.7 35 +24 +27 комфорт 1023.2 995.7 +24.4

 

Местоположение метеостанции Спас-Деменск (Калужская область, Россия): широта 54.42 долгота 34.02 высота над уровнем моря 238 м.

В архиве по умолчанию представлена погода в Спас-Деменске за последнюю неделю. Архивные данные за месяц целиком и за предыдущие месяцы, начиная с января 2011 года, Вы можете получить, выбрав интересующий диапазон дат из раскрывающегося списка и нажав кнопку "Ввод!".


*Определитесь, кто Вы:
робот инопланетянин человек

Внимание! Время в таблицах - всемирное. Для получения местного времени необходимо прибавить поправку, которая равна 3 ч.

Смотрите также архив погоды в соседних городах и на ближайших метеорологических станциях:

Погода в Ельне (Смоленская область, Россия) (57 км)
Погода в Мосальске (Калужская область, Россия) (65 км)
Погода в Вязьме (Смоленская область, Россия) (87 км)
Погода в Жиздре (Калужская область, Россия) (88 км)
Погода в Сафоново (Смоленская область, Россия) (91 км)
Погода в Сухиничах (Калужская область, Россия) (93 км)
Погода в Рославле (Смоленская область, Россия) (95 км)
Погода в Жуковке (Брянская область, Россия) (101 км)
Погода в Починке (Смоленская область, Россия) (103 км)
Погода в Смоленске (Смоленская область, Россия) (131 км)

Пояснения к столбцам:

Ветер - указаны скорость ветра в м/с - средняя за 10 мин, порывы в срок и между сроками (в фигурных скобках) и направление, откуда дует ветер: С - северный, СВ - северо-восточный, В - восточный, ЮВ - юго-восточный, Ю - южный, ЮЗ - юго-западный, З - западный, СЗ - северо-западный.
Видимость - горизонтальная дальность видимости в метрах или километрах. При видимости от 1 до 10 км при отсутствии осадков обычно наблюдается дымка, при ухудшении видимости до 1 км и менее - туман. В сухую погоду видимость может ухудшаться дымом, пылью или мглою.
Явления - указаны атмосферные явления, наблюдавшиеся в срок или в последний час перед сроком; фигурными скобками обозначены явления, наблюдавшиеся между сроками (за 1-3 часа до срока); квадратными скобками обозначены град или гололедные отложения с указанием их диаметра в мм.
Облачность - указаны через наклонную черту общая и нижняя облачность в баллах и высота нижней границы облаков в метрах; квадратными скобками обозначены формы облаков: Ci - перистые, Cs - перисто-слоистые, Cc - перисто-кучевые, Ac - высококучевые, As - высокослоистые, Sc - слоисто-кучевые, Ns - слоисто-дождевые, Cu - кучевые, Cb - кучево-дождевые. Подробнее классификацию облаков см. в Атласе облаков (PDF).
T - Температура воздуха - температура, измеренная на высоте 2 м над землей.
Td - Температура точки росы - температура, при понижении до которой содержащийся в воздухе водяной пар достигнет насыщения.
f - Относительная влажность воздуха - влажноcть воздуха, измеренная на высоте 2 м над землей.
Te - Эффективная температура - температура, которую ощущает одетый по сезону человек в тени. Характеристика душности погоды. При расчете учитывается влияние влажности воздуха и скорости ветра на теплоощущения человека.
Tes - Эффективная температура на солнце - температура, которую ощущает человек, с поправкой на солнечный нагрев. Характеристика знойности погоды. Зависит от высоты солнца над горизонтом, облачности и скорости ветра. Ночью, в пасмурную погоду, а также при ветре 12 м/с и более поправка равна нулю.
P - Атмосферное давление - приведенное к уровню моря атмосферное давление.
Po - Атмосферное давление - измеренное на уровне метеостанции атмосферное давление.
Tmin - Минимальная температура - минимум температуры воздуха на высоте 2 м над землей.
Tmax - Максимальная температура - максимум температуры воздуха на высоте 2 м над землей.
R - Количество осадков - Количество выпавших осадков за период времени, мм. При наведении курсора мыши на число - период времени, за который выпало указанное количество осадков.
R24 - Количество осадков - Количество выпавших осадков за 24 часа, мм.
S - Снежный покров - Высота снежного покрова, см. При наведении курсора мыши на число - состояние снежного покрова и степень покрытия местности в баллах.